Weather in Gemena

Democratic Republic of the Congo     3°14′38″N   19°46′56″E
temp.,
°C
wind,
m/s
gust,
m/s
humid.,
%
clouds,
%
prec.,
mm/h
press.,
hPa
HPBL,
m
27 february, sat
sat2701:00+22sw12671 0.0 100734
04:00+20nw117864 0.0 100823
07:00+23w126932 0.0 1010115
10:00+34w23370 0.0 10101213
13:00+40nw13170 0.0 10053458
16:00+38ne121856 0.0 10033451
19:00+27se113539 0.0 100524
22:00+25sse12430 0.0 100826
28 february, sun
sun2801:00+22ssw12590 0.0 100643
04:00+20s13740 0.0 100679
07:00+23nnw11690 0.0 100949
10:00+35n11330 0.0 1009926
13:00+42n13160 0.0 10043237
16:00+38nne221830 0.0 10023538
19:00+29ne112942 0.0 100424
22:00+26s11340 0.0 100524
1 march, mon
mon101:00+25ssw11390 0.0 100524
04:00+23s114416 0.0 100523
07:00+24nne264221 0.0 1008227
10:00+38ne12190 0.0 10081089
13:00+43e13131 0.0 10024002
16:00+39e231686 0.0 10003755
19:00+30w012756 0.0 100324
22:00+26ne11330 0.0 100524
2 march, tue
tue201:00+24wnw11370 0.0 100524
04:00+23e11400 0.0 100625
07:00+24nw11338 0.0 100933
10:00+40ese121278 0.0 10081108
13:00+43ese231077 0.0 10043807
16:00+41e121283 0.0 10014286
19:00+30sw112564 0.0 100324
22:00+26nnw123338 0.0 100524
3 march, wed
wed301:00+23s124130 0.0 100523
04:00+21n125399 0.0 100631
07:00+25e004399 0.0 100930
10:00+37ssw2227100 0.0 10081164
13:00+42s131891 0.0 10043420
16:00+38ssw122091 0.0 10012164
19:00+30sw113263 0.0 100324
22:00+26sse114521 0.0 100524